Regional Weather Roundup
Issued by NWS

Home | Current Version | Previous Version | Text Only | Print | Product List | Glossary Off
Versions: 1 2 3 4 5 6 7 8 9 10 11 12 13 14 15 16 17 18 19 20 21 22 23 24 25 26 27 28 29 30 31 32 33 34 35 36 37 38 39 40 41 42 43 44 45 46 47 48 49 50

923
ASUS43 KDTX 231710
RWRMI
MICHIGAN HOURLY REGIONAL WEATHER ROUNDUP
NATIONAL WEATHER SERVICE DETROIT/PONTIAC MI
100 PM EDT THU MAR 23 2017

NOTE: "FAIR" INDICATES FEW OR NO CLOUDS BELOW 12,000 FEET WITH NO
SIGNIFICANT WEATHER AND/OR OBSTRUCTION TO VISIBILITY.

MIZ047>049-052>055-059>063-066>070-074>076-081>083-231800-
SOUTHEAST LOWER MICHIGAN

CITY           SKY/WX    TMP DP  RH WIND       PRES   REMARKS
ADRIAN         SUNNY     38  12  34 SE12      30.48F WCI  30
ALMA           SUNNY     39  17  40 SE13      30.45F WCI  31
ANN ARBOR      SUNNY     37  13  37 E14       30.48F WCI  28
BAD AXE        SUNNY     36  11  36 S13       30.49F WCI  27
CARO           SUNNY     40   9  28 S8        30.47F WCI  34
DETROIT CITY   SUNNY     38  16  40 SE9       30.51F WCI  31
DETROIT        PTSUNNY   38  14  37 SE13      30.51F WCI  30
FLINT          SUNNY     40  12  32 S12       30.47F WCI  33
GROSSE ILE     SUNNY     36  11  35 SE8       30.50F WCI  30
HILLSDALE      SUNNY     36  10  35 E14       30.43F WCI  27
HOWELL         SUNNY     39  12  34 SE14      30.45F WCI  30

CITY           SKY/WX    TMP DP  RH WIND       PRES   REMARKS
JACKSON        SUNNY     39  12  33 SE13      30.44F WCI  31
LAMBERTVILLE   SUNNY     39  17  42 E9        30.48F WCI  32
LANSING        SUNNY     41  12  30 S15       30.45F
LAPEER         FAIR      37   8  29 S12G20    30.48F WCI  30
MASON          MOSUNNY   38  21  48 SE13      30.44F WCI  31
MONROE         SUNNY     36  18  49 E10       30.50F WCI  28
MT. CLEMENS    MOSUNNY   37  18  45 SE13G20   30.50F WCI  29
PONTIAC        PTSUNNY   36  11  35 SE14      30.47F WCI  27
PORT HOPE        N/A     37  14  38 S13       30.48F WCI  29
PORT HURON     SUNNY     37  10  32 SE13      30.52F WCI  29
TRI CITIES     SUNNY     38  14  37 S12       30.47F WCI  30
MIDLAND        FAIR      38  15  40 S3        30.46F
TROY           SUNNY     38   8  29 SE9       30.51F WCI  31
SAGINAW HB     MOSUNNY   39   5  24 S10G17    30.47F WCI  32
$$
MIZ043>046-050>051-056>058-064>065-071>073-077>080-231800-
SOUTHWEST LOWER MICHIGAN

CITY           SKY/WX    TMP DP  RH WIND       PRES   REMARKS
BATTLE CREEK   SUNNY     41   8  25 SE17      30.41F
BENTON HARBOR  CLOUDY    38  10  31 SE14      30.40F WCI  30
BIG RAPIDS     CLOUDY    36   9  33 S12       30.39F WCI  27
COLDWATER      SUNNY     39  10  30 SE12G18   30.43F WCI  32
FREMONT        CLOUDY    36   9  32 S8        30.39F WCI  30
HOLLAND        CLOUDY    41  12  30 SE12      30.40F
GRAND RAPIDS   CLOUDY    38  14  37 SE14      30.41F WCI  30
IONIA          FAIR      38  15  38 S13G20    30.42F WCI  31
KALAMAZOO      MOSUNNY   41   6  23 SE13G20   30.41F
LUDINGTON      CLOUDY    36  16  43 S9        30.37F WCI  29
MARSHALL       MOSUNNY   40   8  27 SE12G18   30.43F WCI  32
MOUNT PLEASANT PTSUNNY   37  18  45 S10       30.44F WCI  30
MUSKEGON       CLOUDY    37  13  37 SE14      30.39F WCI  28
SOUTH HAVEN    CLOUDY    38   7  27 SE10      30.40F WCI  31
$$
MIZ016>042-231800-
NORTHERN LOWER MICHIGAN

CITY           SKY/WX    TMP DP  RH WIND       PRES   REMARKS
ALPENA         MOSUNNY   40  13  33 S14       30.44F WCI  32
BEAVER ISLAND  CLOUDY    35  19  52 S9G17     30.36F WCI  27
BELLAIRE       PTSUNNY   38   9  30 S12       30.40F WCI  31
CADILLAC       CLOUDY    38   9  30 S13G20    30.35F WCI  30
CHARLEVOIX     CLOUDY    36  13  40 S7        30.41F WCI  30
FRANKFORT      CLOUDY    38  11  33 S10       30.37F WCI  31
GAYLORD        MOSUNNY   37   7  28 S12       30.37F WCI  29
GRAYLING       CLOUDY    37   7  28 SE13G21   30.40F WCI  29
HARBOR SPRINGS CLOUDY    36  13  38 S6        30.39F WCI  31
HOUGHTON LAKE  CLOUDY    36  11  35 S10G18    30.41F WCI  28
MANISTEE       PTSUNNY   38   9  30 SE12      30.36F WCI  30
OSCODA         MOSUNNY   36  13  39 SW15      30.47F WCI  27
PELLSTON       CLOUDY    38  11  32 S9G17     30.39F WCI  31
ROGERS CITY    MOSUNNY   39  12  34 S10       30.43F WCI  32
TRAVERSE CITY  CLOUDY    41  10  28 SE12G20   30.37F
$$
MIZ007>008-015-231800-
EASTERN UPPER MICHIGAN

CITY           SKY/WX    TMP DP  RH WIND       PRES   REMARKS
KINROSS        PTSUNNY   36  13  38 S14       30.38F WCI  27
MACKINAC ISLAN MOSUNNY   35  15  43 S7        30.39F WCI  29
NEWBERRY       CLOUDY    32  21  62 S17G23    30.32F WCI  21
S. S. MARIE    PTSUNNY   34  18  52 SE12      30.38F WCI  25
MUNISING         N/A     35  22  58 S13G24    30.26F WCI  26
$$
MIZ004>006-011>014-085-231800-
CENTRAL UPPER MICHIGAN

CITY           SKY/WX    TMP DP  RH WIND       PRES   REMARKS
MANISTIQUE     CLOUDY    34  28  80 S14G21    30.32F WCI  24
ESCANABA       CLOUDY    34  27  75 S7        30.30F WCI  28
MENOMINEE        N/A    N/A N/A N/A MISG        N/A
SAWYER-GWINN   CLOUDY    28  23  80 S17G23    30.24F WCI  16
$$
MIZ001>003-009>011-084-231800-
WESTERN UPPER MICHIGAN

CITY           SKY/WX    TMP DP  RH WIND       PRES   REMARKS
IRON MOUNTAIN  CLOUDY    30  21  69 SE10      30.22F WCI  21
HOUGHTON         N/A     32  23  69 S13       30.13F WCI  22
COPPER HARBOR    N/A     33  21  61 VRB6G21   30.17F WCI  28
IRONWOOD       CLOUDY    34  18  52 S12       30.09F WCI  25
$$

ABBREVIATIONS USED IN REMARKS
   TC - TEMPERATURE IN CELSIUS
  WCI - WIND CHILL INDEX
   HX - HEAT INDEX
  VSB - VISIBILITY





USA.gov is the U.S. government's official web portal to all federal, state and local government web resources and services.